Retour au catalogue

STARLINK-30779

ActifCommunicationsVLEO
NORAD 58160·PAYLOAD·🇺🇸 United States

Lancé Oct 29, 2023 depuis Vandenberg Space Force Base

Loading…

Prochains Passages (prochaines 24 heures)

TLE

FraisSource: CelesTrak SupGP

Époque: Sep 15, 2026, 02:02 UTC

1 58160C 23166L   26258.08520833 -.00025402  00000+0 -81691-3 0  2580
2 58160  53.1581  58.5883 0001104  92.1999 316.5865 15.31712750    14

Suivez STARLINK-30779 en temps réel avec AllMySat

Download on the App Store